Tracking 27382 objects as of 4-Jun-2023
HD Live streaming from Space Station
objects crossing your sky now

STARLINK-5898

Track STARLINK-5898 now!
10-day predictions
STARLINK-5898 is classified as:


NORAD ID: 55929
Int'l Code: 2023-037R
Perigee: 577.2 km
Apogee: 581.2 km
Inclination: 70.0 °
Period: 96.1 minutes
Semi major axis: 6950 km
RCS: Unknown
Launch date: March 17, 2023
Source: United States (US)
Launch site: AIR FORCE WESTERN TEST RANGE (AFWTR)
Your satellite tracking list
Your tracking list is empty




NASA's NSSDC Master Catalog

Two Line Element Set (TLE):
1 55929U 23037R   23155.56827210  .00000365  00000-0  38413-4 0  9999
2 55929  69.9986 328.6796 0002834 267.9541  92.1294 14.98330215 12333
Source of the keplerian elements: AFSPC